Location: Unspecified
(0.0000°N, 0.0000°E)
Time: 06:32:47
(UTC+00:00)

Vanguard 2 - Pass Details

Date: 28 November 2019
Orbit: 553 x 2938 km, 32.9° (Epoch: 10 December)

Event Time Altitude Azimuth Distance (km) Brightness Sun altitude
Exits shadow 02:26:46 67° 20° (NNE) 3,095 10.2 -45.8°
Drops below altitude 10° 02:40:59 10° 49° (NE) 5,354 11.9 -42.7°
Sets 02:44:43 0° 51° (NE) 6,153 12.4 -41.9°
